Hourly Weather Roundup
Issued by NWS Central Illinois

Home | Current Version | Previous Version | Text Only | Print | Product List | Glossary On
Versions: 1 2 3 4 5 6 7 8 9 10 11 12 13 14 15 16 17 18 19 20 21 22 23 24 25 26 27 28 29 30 31 32 33 34 35 36 37 38 39 40 41 42 43 44 45 46 47 48 49 50
000
NZUS43 KILX 220210
HWRILX

AREA WEATHER ROUNDUP
NATIONAL WEATHER SERVICE, LINCOLN IL
900 PM CDT SUN SEP 21 2014


CITY           SKY/WX    TMP DP  RH WIND       PRES   REMARKS
CHAMPAIGN      CLEAR     56  51  84 NW8       30.10R
DECATUR        CLEAR     60  51  72 NW10G21   30.13R
FLORA          CLEAR     59  50  72 N3        30.10R
GALESBURG      MOCLDY    56  52  87 W5        30.15R
JACKSONVILLE   CLEAR     58  52  80 NW6       30.17R
LACON          PTCLDY    58  51  77 NW3       30.13R
LAWRENCEVILLE  CLEAR     58  51  78 N7        30.08R
LITCHFIELD     CLEAR     56  51  82 N8        30.14R
$$


CITY           SKY/WX    TMP DP  RH WIND       PRES   REMARKS
LINCOLN        CLEAR     58  51  77 NW5       30.12R
MACOMB         CLEAR     51  50  95 W6        30.18R
MATTOON        CLEAR     54  49  83 NW5       30.10R
MT CARMEL AP   CLEAR     61  52  72 N6        30.08R
OLNEY-NOBLE AP CLEAR     59  50  72 N5        30.09R
PARIS          CLEAR     56  52  86 NW5       30.10R
PEORIA         CLEAR     58  51  78 NW5       30.14R
PONTIAC        CLEAR     59  54  82 NW6       30.12R
RANTOUL        CLEAR     59  50  73 NW7       30.11R
ROBINSON       CLEAR     60  53  76 N6        30.09R
SPRINGFIELD    CLEAR     59  51  75 NW7       30.14R
TAYLORVILLE    CLEAR     57  50  77 NW7       30.13R
$$

...REGIONAL REPORTS...


CITY           SKY/WX    TMP DP  RH WIND       PRES   REMARKS
CHICAGO O`HARE PTCLDY    58  48  69 N6        30.12R
KANKAKEE       PTCLDY    56  52  86 N5        30.12R
MOLINE         CLEAR     61  48  62 N7        30.15R
MOUNT VERNON   CLEAR     63  48  59 N3        30.10R
PITTSFIELD     CLEAR     59  51  73 N3        30.17R
QUINCY         CLEAR     56  49  77 N6        30.17R
ROCKFORD       PTCLDY    53  46  77 CALM      30.15R
$$


CITY           SKY/WX    TMP DP  RH WIND       PRES   REMARKS
BURLINGTON     CLEAR     57  50  77 NW7       30.16R
CEDAR RAPIDS   CLEAR     52  49  89 NW7       30.16R
DES MOINES     CLEAR     61  49  64 N6        30.21R
KIRKSVILLE     CLEAR     56  50  80 NW5       30.20R
OTTUMWA        CLEAR     54  48  80 N6        30.19R
ST LOUIS       CLEAR     64  51  62 NW6       30.14R
$$


CITY           SKY/WX    TMP DP  RH WIND       PRES   REMARKS
TERRE HAUTE    CLEAR     56  50  80 W5        30.08R
EVANSVILLE     CLEAR     65  50  58 N9        30.07R
INDIANAPOLIS   PTCLDY    57  49  74 N6        30.06R
LAFAYETTE      PTCLDY    57  50  77 N6        30.07R
MADISON        CLEAR     52  45  77 CALM      30.14R
MILWAUKEE      PTCLDY    53  41  63 N8        30.12R
$$




USA.gov is the U.S. government's official web portal to all federal, state and local government web resources and services.